GW6248 Weather Reports


Display with metric or nautical units.
time (UTC)temp
F
wind
direction
speed
MPH
gust
MPH
rain 1hr
in
rain 24hr
in
rain mn
in
humidity
%
barometer
mb
20260508060503 45 280 1.0 3.0 0.00 0.00 0.00 94 1014.7
20260508060003 45 348 1.0 3.0 0.00 0.00 0.00 94 1014.8
20260508055503 45 19 0.0 2.0 0.00 0.00 0.00 95 1014.7
20260508055004 45 9 1.0 2.0 0.00 0.00 0.00 95 1014.8
20260508054503 45 352 0.0 2.0 0.00 0.00 0.00 95 1014.7
20260508054003 44 348 0.0 2.0 0.00 0.00 0.00 95 1014.7
20260508053503 44 358 0.0 2.0 0.00 0.00 0.00 95 1014.8
20260508053216 44 351 0.0 2.0 0.00 0.00 0.00 94 1014.7
20260508052503 44 330 0.0 2.0 0.00 0.00 0.00 94 1014.5
20260508052216 44 333 0.0 2.0 0.00 0.00 0.00 94 1014.6
20260508051503 44 7 0.0 2.0 0.00 0.00 0.00 94 1014.5
20260508051003 44 14 1.0 2.0 0.00 0.00 0.00 94 1014.7
20260508050503 44 353 0.0 2.0 0.00 0.00 0.00 94 1014.6
20260508050003 44 304 0.0 2.0 0.00 0.00 0.00 94 1014.6
20260508045503 44 327 0.0 2.0 0.00 0.00 0.00 94 1014.4
20260508045003 44 10 0.0 1.0 0.00 0.00 0.00 94 1014.5
20260508044503 44 337 0.0 2.0 0.00 0.00 0.00 94 1014.5
20260508044218 44 330 0.0 2.0 0.00 0.00 0.00 94 1014.4
20260508043503 44 353 1.0 2.0 0.00 0.00 0.00 94 1014.3
20260508043003 44 3 1.0 2.0 0.00 0.00 0.00 94 1014.5
20260508042503 44 22 1.0 3.0 0.00 0.00 0.00 94 1014.3
20260508042218 44 31 1.0 3.0 0.00 0.00 0.00 94 1014.3
20260508041504 44 51 1.0 2.0 0.00 0.00 0.00 95 1014.3
20260508041003 44 27 1.0 2.0 0.00 0.00 0.00 95 1014.4
20260508040503 43 340 1.0 2.0 0.00 0.00 0.00 95 1014.3
20260508040004 43 357 1.0 2.0 0.00 0.00 0.00 95 1014.6
20260508035717 43 360 1.0 2.0 0.00 0.00 0.00 95 1014.3
20260508035003 43 337 1.0 2.0 0.00 0.00 0.00 95 1014.5
20260508034503 43 351 1.0 2.0 0.00 0.00 0.00 95 1014.5
20260508034003 43 1 0.0 2.0 0.00 0.00 0.00 95 1014.5
20260508033503 43 333 0.0 2.0 0.00 0.00 0.00 95 1014.5
20260508033004 43 260 0.0 4.0 0.00 0.00 0.00 95 1014.5
20260508032504 43 265 1.0 4.0 0.00 0.00 0.00 95 1014.5
20260508032003 43 310 1.0 3.0 0.00 0.00 0.00 95 1014.5
20260508031503 43 345 1.0 3.0 0.00 0.00 0.00 95 1014.5
20260508031003 43 8 1.0 2.0 0.00 0.00 0.00 95 1014.5
20260508030503 43 3 1.0 2.0 0.00 0.00 0.00 96 1014.7
20260508030218 43 350 1.0 2.0 0.00 0.00 0.00 96 1014.6
20260508025503 43 328 1.0 2.0 0.00 0.00 0.00 96 1014.5
20260508025003 42 338 0.0 2.0 0.00 0.00 0.00 96 1014.5
20260508024716 42 354 0.0 2.0 0.00 0.00 0.00 96 1014.6
20260508024003 42 33 0.0 2.0 0.00 0.00 0.00 96 1014.5
20260508023504 42 324 0.0 2.0 0.00 0.00 0.00 96 1014.4
20260508023004 42 317 0.0 2.0 0.00 0.00 0.00 96 1014.6
20260508022503 42 356 0.0 2.0 0.00 0.00 0.00 96 1014.5
20260508022003 42 4 0.0 2.0 0.00 0.00 0.00 96 1014.6
20260508021503 42 255 1.0 3.0 0.00 0.00 0.00 96 1014.5
20260508021003 42 307 1.0 3.0 0.00 0.00 0.00 96 1014.5
20260508020718 42 354 1.0 3.0 0.00 0.00 0.00 96 1014.4
20260508020004 42 12 1.0 3.0 0.00 0.00 0.00 96 1014.4
20260508015503 42 26 0.0 2.0 0.00 0.00 0.00 96 1014.3
20260508015003 42 42 0.0 2.0 0.00 0.00 0.00 96 1014.3
20260508014504 42 10 0.0 1.0 0.00 0.00 0.00 96 1014.6
20260508014003 41 354 0.0 2.0 0.00 0.00 0.00 96 1014.6
20260508013503 41 333 1.0 2.0 0.00 0.00 0.00 96 1014.5
20260508013003 41 320 1.0 2.0 0.00 0.00 0.00 96 1014.5
20260508012718 41 327 1.0 2.0 0.00 0.00 0.00 96 1014.5
20260508012003 41 323 1.0 3.0 0.00 0.00 0.00 96 1014.5
20260508011718 41 309 1.0 3.0 0.00 0.00 0.00 96 1014.6
20260508011003 41 320 1.0 2.0 0.00 0.00 0.00 96 1014.7
20260508010504 41 336 1.0 2.0 0.00 0.00 0.00 96 1014.5
20260508010003 41 351 1.0 2.0 0.00 0.00 0.00 96 1014.6
20260508005718 41 347 1.0 2.0 0.00 0.00 0.00 96 1014.5
20260508005003 41 331 0.0 2.0 0.00 0.00 0.00 95 1014.6
20260508004503 42 355 0.0 2.0 0.00 0.00 0.00 95 1014.4
20260508004004 42 346 0.0 2.0 0.00 0.00 0.00 95 1014.6
20260508003503 42 354 0.0 2.0 0.00 0.00 0.00 95 1014.5
20260508003217 42 342 0.0 2.0 0.00 0.00 0.00 95 1014.7
20260508002504 42 323 1.0 2.0 0.00 0.00 0.00 95 1014.7
20260508002216 42 331 1.0 2.0 0.00 0.00 0.00 95 1014.7
20260508001503 42 337 0.0 1.0 0.00 0.00 0.00 95 1014.7
20260508001003 42 350 0.0 2.0 0.00 0.00 0.00 95 1014.7
20260508000717 42 358 0.0 2.0 0.00 0.00 0.00 95 1014.6
20260508000216 42 355 0.0 1.0 0.00 0.00 0.00 94 1014.8
20260507235503 42 313 0.0 3.0 0.00 0.00 0.00 94 1014.9
20260507235003 43 352 0.0 2.0 0.00 0.00 0.00 94 1014.7
20260507234503 43 10 0.0 2.0 0.00 0.00 0.00 94 1014.7
20260507234003 43 1 0.0 1.0 0.00 0.00 0.00 94 1014.8
20260507233504 43 355 0.0 1.0 0.00 0.00 0.00 94 1014.8
20260507233003 43 345 0.0 1.0 0.00 0.00 0.00 94 1014.9
20260507232503 43 327 0.0 2.0 0.00 0.00 0.00 94 1014.7
20260507232218 43 336 0.0 2.0 0.00 0.00 0.00 94 1014.6
20260507231503 43 344 0.0 2.0 0.00 0.00 0.00 94 1014.7
20260507231003 44 314 1.0 2.0 0.00 0.00 0.00 94 1014.7
20260507230504 44 333 1.0 2.0 0.00 0.00 0.00 94 1014.7
20260507230218 44 1 0.0 2.0 0.00 0.00 0.00 94 1014.6
20260507225503 44 342 0.0 2.0 0.00 0.00 0.00 93 1014.9
20260507225003 44 297 0.0 2.0 0.00 0.00 0.00 93 1014.7
20260507224504 44 320 0.0 2.0 0.00 0.00 0.00 93 1014.8
20260507224003 44 333 0.0 2.0 0.00 0.00 0.00 93 1014.9
20260507223504 44 312 1.0 2.0 0.00 0.00 0.00 93 1014.8
20260507223003 44 317 0.0 2.0 0.00 0.00 0.00 93 1014.6
20260507222503 45 321 0.0 2.0 0.00 0.00 0.00 93 1014.7
20260507222004 45 325 0.0 2.0 0.00 0.00 0.00 93 1014.7
20260507221717 45 328 0.0 2.0 0.00 0.00 0.00 93 1014.7
20260507221218 45 346 0.0 2.0 0.00 0.00 0.00 93 1014.7
20260507220717 45 339 0.0 2.0 0.00 0.00 0.00 92 1014.7
20260507220218 45 327 0.0 2.0 0.00 0.00 0.00 92 1014.7
20260507215503 45 347 0.0 2.0 0.00 0.00 0.00 92 1014.7
20260507215003 45 336 0.0 2.0 0.00 0.00 0.00 92 1014.5
20260507214716 45 330 0.0 2.0 0.00 0.00 0.00 92 1014.5
20260507214003 46 354 0.0 2.0 0.00 0.00 0.00 91 1014.5
20260507213503 46 352 0.0 2.0 0.00 0.00 0.00 91 1014.4
20260507213003 46 343 0.0 1.0 0.00 0.00 0.00 90 1014.5
20260507212503 46 337 0.0 1.0 0.00 0.00 0.00 89 1014.5
20260507212004 46 306 0.0 2.0 0.00 0.00 0.00 88 1014.4
20260507211503 46 310 0.0 2.0 0.00 0.00 0.00 88 1014.4
20260507211004 47 322 0.0 2.0 0.00 0.00 0.00 89 1014.5
20260507210503 47 325 0.0 1.0 0.00 0.00 0.00 88 1014.3
20260507210004 47 323 1.0 2.0 0.00 0.00 0.00 88 1014.5
20260507205504 47 326 1.0 2.0 0.00 0.00 0.00 87 1014.3
20260507205003 47 332 1.0 2.0 0.00 0.00 0.00 87 1014.3
20260507204503 48 321 0.0 2.0 0.00 0.00 0.00 86 1014.2
20260507204003 48 307 0.0 2.0 0.00 0.00 0.00 85 1014.1
20260507203503 48 322 0.0 2.0 0.00 0.00 0.00 85 1014.1
20260507203217 48 332 0.0 2.0 0.00 0.00 0.00 85 1014.0
20260507202718 49 342 0.0 2.0 0.00 0.00 0.00 84 1014.0
20260507202003 49 324 0.0 2.0 0.00 0.00 0.00 83 1014.1
20260507201503 50 314 0.0 2.0 0.00 0.00 0.00 83 1013.9
20260507201217 50 305 0.0 2.0 0.00 0.00 0.00 82 1013.8
20260507200504 50 340 0.0 1.0 0.00 0.00 0.00 82 1013.9
20260507200004 50 312 0.0 1.0 0.00 0.00 0.00 81 1013.7
20260507195504 51 328 0.0 1.0 0.00 0.00 0.00 81 1013.9
20260507195217 51 332 0.0 1.0 0.00 0.00 0.00 81 1013.9
20260507194503 51 343 0.0 2.0 0.00 0.00 0.00 80 1013.8
20260507194004 51 350 0.0 2.0 0.00 0.00 0.00 80 1013.6
20260507193503 51 353 0.0 1.0 0.00 0.00 0.00 80 1013.5
20260507193004 51 324 0.0 1.0 0.00 0.00 0.00 80 1013.6
20260507192503 51 324 0.0 1.0 0.00 0.00 0.00 79 1013.4
20260507192003 51 345 0.0 1.0 0.00 0.00 0.00 79 1013.7
20260507191718 51 356 0.0 1.0 0.00 0.00 0.00 79 1013.7
20260507191003 51 9 0.0 1.0 0.00 0.00 0.00 79 1013.4
20260507190718 51 359 0.0 1.0 0.00 0.00 0.00 78 1013.6
20260507190004 52 360 0.0 1.0 0.00 0.00 0.00 78 1013.6
20260507185503 52 5 0.0 2.0 0.00 0.00 0.00 78 1013.6
20260507185003 51 9 0.0 2.0 0.00 0.00 0.00 78 1013.4
20260507184503 52 17 0.0 1.0 0.00 0.00 0.00 78 1013.5
20260507184003 52 24 0.0 1.0 0.00 0.00 0.00 77 1013.4
20260507183503 52 18 0.0 2.0 0.00 0.00 0.00 77 1013.3
20260507183004 53 15 0.0 2.0 0.00 0.00 0.00 77 1013.5
20260507182503 53 3 0.0 2.0 0.00 0.00 0.00 76 1013.4
20260507182003 54 16 1.0 3.0 0.00 0.00 0.00 75 1013.4
20260507181503 54 26 1.0 3.0 0.00 0.00 0.00 70 1013.3
20260507181003 53 19 1.0 4.0 0.00 0.00 0.00 72 1013.4
20260507180717 53 8 1.0 4.0 0.00 0.00 0.00 74 1013.4
20260507180003 53 360 1.0 2.0 0.00 0.00 0.00 77 1013.3
20260507175503 52 4 0.0 2.0 0.00 0.00 0.00 77 1013.4
20260507175003 53 4 0.0 2.0 0.00 0.00 0.00 77 1013.3
20260507174503 53 5 0.0 1.0 0.00 0.00 0.00 77 1013.5
20260507174003 53 357 0.0 1.0 0.00 0.00 0.00 76 1013.4
20260507173503 53 337 0.0 2.0 0.00 0.00 0.00 73 1013.2
20260507173004 54 333 1.0 3.0 0.00 0.00 0.00 72 1013.3
20260507172504 54 120 1.0 3.0 0.00 0.00 0.00 70 1013.3
20260507172003 54 97 1.0 3.0 0.00 0.00 0.00 71 1013.3
20260507171503 54 66 1.0 4.0 0.00 0.00 0.00 72 1013.3
20260507171003 54 65 2.0 4.0 0.00 0.00 0.00 72 1013.4
20260507170503 54 58 2.0 5.0 0.00 0.00 0.00 73 1013.3
20260507170218 54 64 2.0 5.0 0.00 0.00 0.00 72 1013.6
20260507165504 54 76 2.0 5.0 0.00 0.00 0.00 73 1013.3
20260507165003 54 88 2.0 4.0 0.00 0.00 0.00 74 1013.4
20260507164503 54 83 2.0 5.0 0.00 0.00 0.00 73 1013.3
20260507164003 54 90 2.0 5.0 0.00 0.00 0.00 77 1013.3
20260507163503 54 96 3.0 6.0 0.00 0.00 0.00 77 1013.4
20260507163003 54 90 3.0 6.0 0.00 0.00 0.00 76 1013.3
20260507162503 54 73 3.0 6.0 0.00 0.00 0.00 72 1013.2
20260507162003 54 75 2.0 6.0 0.00 0.00 0.00 73 1013.5
20260507161503 55 111 2.0 5.0 0.00 0.00 0.00 74 1013.5
20260507161003 54 118 2.0 5.0 0.00 0.00 0.00 74 1013.3
20260507160503 55 99 2.0 5.0 0.00 0.00 0.00 73 1013.3
20260507160217 55 94 2.0 5.0 0.00 0.00 0.00 74 1013.2
20260507155504 55 141 3.0 8.0 0.00 0.00 0.00 74 1013.4
20260507155003 55 163 3.0 8.0 0.00 0.00 0.00 75 1013.4
20260507154718 55 128 3.0 6.0 0.00 0.00 0.00 74 1013.3
20260507154004 55 100 2.0 7.0 0.00 0.00 0.00 73 1013.5
20260507153504 55 144 2.0 7.0 0.00 0.00 0.00 73 1013.4
20260507153217 55 142 2.0 7.0 0.00 0.00 0.00 73 1013.5
20260507152504 54 116 2.0 5.0 0.00 0.00 0.00 73 1013.5
20260507152003 54 110 2.0 5.0 0.00 0.00 0.00 74 1013.6
20260507151503 55 115 2.0 6.0 0.00 0.00 0.00 75 1013.3
20260507151217 55 111 2.0 6.0 0.00 0.00 0.00 75 1013.5
20260507150503 54 120 1.0 5.0 0.00 0.00 0.00 75 1013.4
20260507150003 54 91 2.0 5.0 0.00 0.00 0.00 75 1013.4
20260507145503 54 87 2.0 5.0 0.00 0.00 0.00 76 1013.4
20260507145003 54 97 2.0 7.0 0.00 0.00 0.00 75 1013.5
20260507144503 54 79 2.0 7.0 0.00 0.00 0.00 76 1013.3
20260507144004 54 58 2.0 6.0 0.00 0.00 0.00 76 1013.6
20260507143503 54 17 2.0 4.0 0.00 0.00 0.00 77 1013.5
20260507143217 54 348 1.0 4.0 0.00 0.00 0.00 77 1013.7
20260507142503 54 351 1.0 4.0 0.00 0.00 0.00 78 1013.5
20260507142003 54 315 1.0 4.0 0.00 0.00 0.00 76 1013.5
20260507141503 55 252 0.0 2.0 0.00 0.00 0.00 76 1013.5
20260507141004 55 242 1.0 3.0 0.00 0.00 0.00 74 1013.6
20260507140503 55 59 1.0 4.0 0.00 0.00 0.00 71 1013.5
20260507140217 55 82 2.0 4.0 0.00 0.00 0.00 70 1013.6
20260507135718 56 165 2.0 5.0 0.00 0.00 0.00 69 1013.5
20260507135003 56 170 2.0 5.0 0.00 0.00 0.00 66 1013.4
20260507134503 56 142 2.0 4.0 0.00 0.00 0.00 67 1013.5
20260507134004 56 84 2.0 4.0 0.00 0.00 0.00 69 1013.4
20260507133503 56 80 2.0 5.0 0.00 0.00 0.00 69 1013.6
20260507133003 56 90 2.0 5.0 0.00 0.00 0.00 68 1013.5
20260507132504 56 95 2.0 5.0 0.00 0.00 0.00 67 1013.6
20260507132003 56 118 2.0 5.0 0.00 0.00 0.00 68 1013.7
20260507131503 55 192 1.0 4.0 0.00 0.00 0.00 68 1013.4
20260507131003 55 261 2.0 5.0 0.00 0.00 0.00 68 1013.4
20260507130503 55 264 2.0 6.0 0.00 0.00 0.00 68 1013.6
20260507130003 55 71 3.0 6.0 0.00 0.00 0.00 68 1013.4
20260507125503 56 89 2.0 6.0 0.00 0.00 0.00 66 1013.3
20260507125004 56 140 2.0 4.0 0.00 0.00 0.00 66 1013.4
20260507124717 57 158 2.0 4.0 0.00 0.00 0.00 66 1013.6
20260507124003 56 83 1.0 4.0 0.00 0.00 0.00 65 1013.4
20260507123717 56 42 1.0 2.0 0.00 0.00 0.00 68 1013.2
20260507123003 55 32 1.0 4.0 0.00 0.00 0.00 67 1013.2
20260507122503 56 45 1.0 4.0 0.00 0.00 0.00 67 1013.2
20260507122004 56 65 1.0 4.0 0.00 0.00 0.00 66 1013.3
20260507121503 56 90 1.0 4.0 0.00 0.00 0.00 67 1013.2
20260507121003 56 135 1.0 3.0 0.00 0.00 0.00 66 1013.2
20260507120503 56 81 1.0 4.0 0.00 0.00 0.00 66 1013.3
20260507120004 56 64 1.0 4.0 0.00 0.00 0.00 65 1013.3
20260507115503 57 312 1.0 5.0 0.00 0.00 0.00 62 1013.0
20260507115004 57 271 1.0 5.0 0.00 0.00 0.00 58 1013.3
20260507114717 57 296 1.0 5.0 0.00 0.00 0.00 59 1013.4
20260507114003 57 352 2.0 6.0 0.00 0.00 0.00 56 1013.2
20260507113503 58 16 2.0 6.0 0.00 0.00 0.00 53 1013.1
20260507113004 58 358 1.0 4.0 0.00 0.00 0.00 56 1013.3
20260507112503 58 327 1.0 4.0 0.00 0.00 0.00 57 1013.2
20260507112003 58 260 2.0 6.0 0.00 0.00 0.00 59 1013.0
20260507111504 59 247 2.0 6.0 0.00 0.00 0.00 57 1013.2
20260507111217 60 255 2.0 5.0 0.00 0.00 0.00 53 1013.0
20260507110503 59 326 2.0 5.0 0.00 0.00 0.00 56 1013.3
20260507110003 59 310 2.0 4.0 0.00 0.00 0.00 56 1013.1
20260507105503 59 326 2.0 4.0 0.00 0.00 0.00 54 1013.6
20260507105217 59 334 1.0 4.0 0.00 0.00 0.00 54 1013.4
20260507104504 58 283 1.0 4.0 0.00 0.00 0.00 54 1013.4
20260507104217 58 268 2.0 4.0 0.00 0.00 0.00 55 1013.5
20260507103503 57 251 1.0 4.0 0.00 0.00 0.00 60 1013.4
20260507103003 57 303 1.0 5.0 0.00 0.00 0.00 60 1013.5
20260507102503 56 297 1.0 5.0 0.00 0.00 0.00 64 1013.5
20260507102003 56 264 2.0 4.0 0.00 0.00 0.00 66 1013.6
20260507101503 56 246 2.0 4.0 0.00 0.00 0.00 65 1013.7
20260507101003 56 233 1.0 3.0 0.00 0.00 0.00 62 1013.5
20260507100718 56 239 1.0 3.0 0.00 0.00 0.00 65 1013.6
20260507100003 55 239 1.0 4.0 0.00 0.00 0.00 67 1013.7
20260507095504 54 242 1.0 4.0 0.00 0.00 0.00 68 1013.8
20260507095004 54 262 1.0 4.0 0.00 0.00 0.00 70 1013.9
20260507094503 54 237 1.0 5.0 0.00 0.00 0.00 68 1013.9
20260507094003 53 243 1.0 5.0 0.00 0.00 0.00 70 1013.8
20260507093503 53 286 1.0 3.0 0.00 0.00 0.00 71 1013.9
20260507093003 53 263 1.0 3.0 0.00 0.00 0.00 70 1014.1
20260507092503 53 256 1.0 3.0 0.00 0.00 0.00 69 1014.0
20260507092217 53 264 1.0 3.0 0.00 0.00 0.00 70 1013.9
20260507091503 53 273 1.0 3.0 0.00 0.00 0.00 71 1013.9
20260507091217 52 275 1.0 3.0 0.00 0.00 0.00 72 1014.0
20260507090503 52 304 1.0 2.0 0.00 0.00 0.00 73 1014.0
20260507090004 52 324 0.0 2.0 0.00 0.00 0.00 73 1013.9
20260507085503 52 306 1.0 2.0 0.00 0.00 0.00 72 1013.8
20260507085003 52 298 1.0 2.0 0.00 0.00 0.00 73 1013.9
20260507084503 52 296 1.0 2.0 0.00 0.00 0.00 73 1014.0
20260507084003 52 291 1.0 3.0 0.00 0.00 0.00 73 1013.9
20260507083504 52 275 1.0 3.0 0.00 0.00 0.00 72 1013.9
20260507083003 52 296 0.0 3.0 0.00 0.00 0.00 71 1013.8
20260507082503 52 308 0.0 2.0 0.00 0.00 0.00 75 1013.8
20260507082003 52 310 1.0 2.0 0.00 0.00 0.00 75 1014.0
20260507081717 51 298 1.0 3.0 0.00 0.00 0.00 76 1013.6
20260507081003 51 292 1.0 3.0 0.00 0.00 0.00 75 1013.6
20260507080503 51 326 0.0 1.0 0.00 0.00 0.00 78 1013.8
20260507080004 50 318 0.0 2.0 0.00 0.00 0.00 77 1013.8
20260507075503 50 320 0.0 2.0 0.00 0.00 0.00 77 1013.9
20260507075003 50 322 0.0 2.0 0.00 0.00 0.00 77 1013.9
20260507074717 50 312 1.0 2.0 0.00 0.00 0.00 77 1013.7
20260507074003 50 308 0.0 2.0 0.00 0.00 0.00 78 1013.8
20260507073503 50 318 1.0 2.0 0.00 0.00 0.00 78 1013.7
20260507073004 50 305 1.0 2.0 0.00 0.00 0.00 77 1013.8
20260507072503 50 300 1.0 2.0 0.00 0.00 0.00 77 1013.7
20260507072003 50 317 0.0 2.0 0.00 0.00 0.00 76 1013.7
20260507071504 50 330 1.0 2.0 0.00 0.00 0.00 76 1013.9
20260507071004 50 306 1.0 2.0 0.00 0.00 0.00 76 1013.6
20260507070503 49 292 1.0 2.0 0.00 0.00 0.00 74 1013.5
20260507070005 49 281 1.0 2.0 0.00 0.00 0.00 75 1013.6
20260507065503 49 276 1.0 2.0 0.00 0.00 0.00 75 1013.5
20260507065003 49 320 0.0 3.0 0.00 0.00 0.00 77 1013.4
20260507064503 49 306 1.0 3.0 0.00 0.00 0.00 77 1013.7
20260507064003 49 299 1.0 3.0 0.00 0.00 0.00 75 1013.7
20260507063503 49 307 1.0 3.0 0.00 0.00 0.00 77 1013.5
20260507063003 49 308 1.0 3.0 0.00 0.00 0.00 78 1013.6
20260507062504 49 322 1.0 3.0 0.00 0.00 0.00 77 1013.7
20260507062003 49 339 1.0 2.0 0.00 0.00 0.00 78 1013.6
20260507061503 49 315 1.0 2.0 0.00 0.00 0.00 77 1013.7
20260507061218 49 309 1.0 2.0 0.00 0.00 0.00 77 1013.7